Torna al catalogo

STARLINK-38160

AttivoComunicazioniSSO
NORAD 100121·PAYLOAD·🇺🇸 United States

Lanciato Jul 21, 2026 da Vandenberg Space Force Base

Loading…

Prossimi Passaggi (prossime 24 ore)

TLE

AggiornatoSource: Space-Track

Epoca: Sep 14, 2026, 07:45 UTC

1 A0121U 26166W   26257.32302983  .00138367  00000-0  91320-3 0  9993
2 A0121  97.2836 275.4079 0001831  85.7917 274.3557 15.75199258  8637

Traccia STARLINK-38160 in tempo reale con AllMySat

Download on the App Store